GFSSE_prec_precacc_162.txt.gz
Total_Precipitation_Accumulation
0.60 0.15 0.18 0.28 0.15 0.14 0.08 0.04 0.03 0.06 0.09 0.05 0.04 0.04 0.01 0.01 0.03 0.03 0.02 0.03 0.03 0.08 0.05 0.02 0.03 0.08 0.14 0.12 0.19 0.16 0.17 0.17 0.25 0.74 0.84 0.74 0.57 0.33 0.38 0.69 0.76 1.03 1.24
0.83 0.45 0.57 0.33 0.13 0.15 0.16 0.08 0.04 0.06 0.07 0.04 0.03 0.02 0.01 0.00 0.02 0.02 0.01 0.03 0.04 0.17 0.07 0.02 0.04 0.07 0.12 0.10 0.10 0.08 0.05 0.08 0.15 0.52 0.71 0.79 0.78 0.50 0.55 0.71 0.93 1.35 1.27
1.70 1.00 0.87 0.95 0.31 0.23 0.20 0.13 0.07 0.02 0.01 0.02 0.01 0.00 0.01 0.01 0.01 0.02 0.02 0.03 0.06 0.27 0.24 0.05 0.05 0.14 0.09 0.06 0.07 0.06 0.05 0.03 0.12 0.39 0.77 0.64 0.47 0.90 0.71 0.70 0.67 1.10 1.13
0.44 0.59 0.76 1.20 0.98 0.81 0.63 0.23 0.13 0.09 0.06 0.01 0.02 0.02 0.02 0.01 0.03 0.07 0.02 0.02 0.16 0.31 0.31 0.30 0.27 0.18 0.07 0.03 0.03 0.05 0.03 0.04 0.10 0.24 0.77 1.58 1.05 1.12 0.87 0.63 0.75 0.91 1.07
0.39 0.32 0.78 1.20 1.35 0.83 1.00 0.68 0.44 0.39 0.16 0.08 0.13 0.06 0.06 0.11 0.24 0.30 0.23 0.22 0.39 0.47 0.45 0.47 0.43 0.29 0.08 0.00 0.00 0.01 0.03 0.08 0.08 0.20 1.09 2.59 1.75 1.42 0.94 0.77 0.76 0.74 1.00
1.16 0.92 1.65 2.09 1.51 1.05 0.95 1.17 2.04 1.85 1.26 0.97 0.62 0.41 0.27 0.49 0.62 0.56 0.47 0.43 0.49 0.58 0.45 0.42 0.45 0.23 0.02 0.00 0.00 0.00 0.03 0.06 0.24 0.35 0.57 1.75 1.77 2.04 1.98 1.15 0.92 0.88 0.94
2.76 2.23 2.19 3.01 2.31 1.63 1.12 1.37 2.03 3.39 3.89 3.34 2.31 1.37 1.60 1.81 1.47 1.16 0.72 0.56 0.51 0.54 0.55 0.47 0.32 0.21 0.08 0.03 0.11 0.09 0.04 0.18 0.42 0.77 0.74 1.68 3.20 2.40 2.41 1.82 1.19 1.05 0.93
5.81 6.52 4.51 4.62 5.15 3.95 2.56 1.26 1.46 2.08 3.36 3.39 3.51 3.36 3.23 2.60 1.68 1.29 0.79 0.59 0.54 0.52 0.45 0.48 0.32 0.29 0.17 0.27 0.25 0.24 0.22 0.22 0.34 0.81 1.09 1.07 2.35 2.96 2.55 1.84 1.22 0.91 0.80
6.86 10.03 10.33 6.90 6.25 5.55 6.20 3.94 1.65 1.56 1.78 2.17 2.29 2.32 2.63 2.99 2.05 1.53 0.97 0.74 0.73 0.72 0.38 0.34 0.29 0.39 0.57 0.53 0.23 0.26 0.29 0.32 0.38 1.04 1.39 0.77 0.80 2.02 4.91 3.31 1.28 0.66 0.50
7.51 6.57 6.83 5.47 4.75 4.34 4.46 5.07 3.57 2.44 2.08 1.85 1.83 1.82 1.73 2.23 2.13 1.50 1.02 0.76 0.83 0.72 0.50 0.40 0.50 0.62 0.57 0.53 0.54 0.46 0.35 0.26 0.15 0.26 0.73 0.61 0.66 0.54 0.90 0.96 0.70 0.51 0.40
3.50 3.96 3.56 2.46 1.71 1.94 2.05 2.50 3.14 3.23 2.64 2.64 2.84 2.07 1.64 1.54 2.06 1.70 1.21 0.92 0.97 0.85 0.69 0.56 0.65 0.66 0.53 0.45 0.31 0.24 0.23 0.23 0.16 0.22 0.44 0.39 0.64 0.74 0.82 0.54 0.42 0.34 0.34
2.08 1.80 1.28 0.81 0.45 0.47 0.61 0.78 1.27 2.09 2.48 2.21 3.53 2.44 2.06 1.20 1.30 1.19 1.36 1.11 0.98 1.11 0.76 0.80 0.65 0.49 0.37 0.25 0.17 0.13 0.09 0.21 0.21 0.27 0.66 0.49 0.66 0.89 0.61 0.41 0.33 0.38 0.45
0.85 0.81 0.75 0.52 0.34 0.38 0.28 0.34 0.51 1.16 1.99 2.26 2.43 2.28 2.29 1.34 1.46 1.17 1.39 1.15 1.02 1.49 0.97 0.93 0.68 0.47 0.31 0.30 0.29 0.16 0.21 0.19 0.21 0.18 0.34 0.33 0.58 0.98 0.71 0.34 0.26 0.24 0.32
0.45 0.47 0.32 0.37 0.45 0.78 0.62 0.38 0.39 0.83 1.58 1.75 1.39 1.24 1.63 1.14 1.14 1.14 0.93 0.94 0.78 1.32 1.00 0.84 0.62 0.52 0.53 0.52 0.41 0.29 0.31 0.23 0.24 0.21 0.24 0.32 0.57 0.78 0.70 0.54 0.35 0.32 0.35
0.30 0.41 0.39 0.18 0.29 0.37 0.48 0.64 0.58 0.69 0.98 1.26 1.06 0.46 1.10 0.93 0.70 1.08 0.84 0.83 0.62 1.22 0.79 0.54 0.57 0.53 0.61 0.68 0.60 0.50 0.28 0.37 0.22 0.26 0.37 0.54 0.60 0.69 1.03 0.99 0.89 0.85 0.55
0.26 0.39 0.47 0.41 0.35 0.35 0.43 0.40 0.56 0.78 1.09 1.00 1.06 0.47 0.41 0.58 0.72 1.15 1.02 0.87 0.61 0.87 0.79 0.68 0.45 0.52 0.50 0.70 0.56 0.49 0.36 0.37 0.18 0.18 0.29 0.45 0.51 0.56 0.84 1.22 1.30 1.06 0.55
0.07 0.22 0.62 1.02 0.50 0.34 0.35 0.45 0.45 0.55 0.93 1.00 1.00 0.74 0.37 0.34 0.48 0.74 0.94 0.73 0.64 0.72 0.67 0.83 0.77 0.60 0.59 0.86 0.60 0.51 0.40 0.45 0.25 0.12 0.20 0.29 0.31 0.40 0.55 0.79 1.01 0.94 0.64
0.04 0.12 0.66 1.27 0.93 0.48 0.31 0.50 0.49 0.63 0.79 0.86 0.90 0.73 0.45 0.32 0.38 0.47 0.71 0.92 0.80 0.82 0.59 0.56 0.77 0.61 0.56 0.77 0.78 0.54 0.52 0.45 0.42 0.13 0.13 0.30 0.32 0.32 0.45 0.52 0.73 0.80 0.72
0.04 0.17 0.50 0.80 1.08 0.98 0.82 0.82 0.67 0.59 0.75 0.73 0.60 0.77 0.68 0.59 0.61 0.52 0.53 0.68 1.04 0.77 0.60 0.64 0.65 0.67 0.48 0.61 0.80 0.69 0.60 0.47 0.54 0.46 0.20 0.21 0.35 0.34 0.32 0.39 0.44 0.45 0.45
0.08 0.32 0.58 0.72 1.21 1.58 0.91 0.50 0.62 0.93 0.81 0.75 0.63 0.75 0.92 0.78 0.97 0.93 0.82 0.61 0.70 0.83 0.69 0.83 0.89 0.81 0.67 0.53 0.69 0.78 0.57 0.66 0.59 0.63 0.40 0.26 0.32 0.38 0.35 0.41 0.39 0.38 0.38
0.18 0.42 0.64 1.00 0.97 0.47 0.28 0.29 0.43 0.62 0.75 0.70 0.59 0.62 1.00 1.15 1.19 1.54 1.49 1.32 0.85 0.53 0.65 0.75 1.13 1.16 1.08 0.93 1.25 1.23 0.90 0.62 0.66 0.60 0.52 0.44 0.51 0.44 0.56 0.49 0.59 0.51 0.53
0.44 0.44 0.33 0.15 0.13 0.05 0.06 0.14 0.30 0.42 0.62 0.57 0.47 0.40 0.69 0.88 1.26 1.36 1.48 1.72 1.87 1.23 0.76 0.73 1.08 1.52 1.63 1.55 1.64 1.42 1.09 0.86 0.61 0.66 0.54 0.42 0.38 0.41 0.56 0.72 0.54 0.55 0.65
0.05 0.02 0.06 0.08 0.14 0.07 0.05 0.20 0.38 0.56 0.76 0.68 0.64 0.34 0.29 0.50 0.84 1.22 1.44 1.38 1.39 1.29 1.16 1.12 1.32 1.75 1.65 1.61 1.42 1.71 1.44 1.09 0.81 0.67 0.58 0.44 0.57 0.70 0.66 0.76 0.88 0.67 0.58
0.03 0.03 0.06 0.13 0.16 0.10 0.20 0.36 0.35 0.38 0.49 0.36 0.29 0.29 0.26 0.45 0.58 0.88 1.20 1.09 1.33 1.57 1.09 0.90 0.69 1.09 1.59 1.74 2.01 1.57 0.92 0.77 0.72 0.75 0.66 0.57 0.50 0.65 0.96 1.52 1.72 1.90 1.89
0.05 0.08 0.08 0.15 0.28 0.21 0.21 0.55 0.69 0.66 0.47 0.40 0.37 0.43 0.42 0.45 0.62 0.69 0.94 1.07 1.11 1.11 1.13 1.00 0.66 0.58 0.85 1.11 1.12 1.32 1.62 1.35 0.96 0.65 0.60 0.50 0.42 0.33 0.41 0.46 0.86 1.31 1.36
0.09 0.12 0.11 0.14 0.24 0.27 0.24 0.39 0.75 1.17 1.51 1.66 1.35 0.93 0.68 0.79 0.84 0.88 0.94 1.05 1.57 1.77 1.56 1.34 1.55 1.33 1.02 1.06 1.27 1.26 0.95 0.88 0.96 1.05 0.86 0.61 0.58 0.41 0.35 0.43 0.51 0.62 0.72

GFSSE_prec_precacc_165.txt.gz
Total_Precipitation_Accumulation
0.61 0.15 0.19 0.29 0.15 0.14 0.08 0.04 0.03 0.06 0.09 0.05 0.04 0.04 0.01 0.01 0.03 0.03 0.02 0.03 0.03 0.08 0.05 0.02 0.03 0.09 0.15 0.12 0.19 0.16 0.17 0.17 0.25 0.74 0.85 0.74 0.59 0.35 0.39 0.69 0.76 1.03 1.25
0.83 0.46 0.57 0.33 0.13 0.15 0.16 0.08 0.04 0.06 0.07 0.04 0.03 0.02 0.01 0.00 0.02 0.02 0.01 0.03 0.04 0.17 0.07 0.02 0.04 0.07 0.12 0.10 0.10 0.08 0.05 0.08 0.15 0.52 0.71 0.80 0.79 0.53 0.62 0.76 0.99 1.35 1.27
1.70 1.01 0.88 0.95 0.31 0.24 0.20 0.13 0.07 0.02 0.01 0.02 0.01 0.00 0.01 0.01 0.01 0.02 0.02 0.03 0.06 0.27 0.24 0.05 0.05 0.14 0.09 0.06 0.07 0.06 0.05 0.03 0.12 0.39 0.77 0.64 0.47 0.94 0.77 0.80 0.74 1.13 1.13
0.48 0.61 0.77 1.20 0.99 0.81 0.64 0.24 0.14 0.09 0.06 0.01 0.02 0.03 0.03 0.01 0.03 0.07 0.02 0.02 0.16 0.31 0.31 0.30 0.27 0.18 0.07 0.03 0.03 0.05 0.03 0.04 0.10 0.24 0.77 1.58 1.06 1.14 0.93 0.71 0.83 0.97 1.11
0.41 0.35 0.78 1.20 1.35 0.83 1.00 0.68 0.44 0.40 0.17 0.08 0.13 0.06 0.06 0.11 0.24 0.30 0.23 0.22 0.39 0.47 0.45 0.47 0.43 0.29 0.08 0.00 0.00 0.01 0.03 0.08 0.08 0.20 1.09 2.59 1.75 1.43 0.95 0.79 0.80 0.79 1.03
1.16 0.92 1.65 2.09 1.51 1.05 0.95 1.17 2.04 1.85 1.26 0.97 0.62 0.41 0.27 0.49 0.62 0.56 0.47 0.43 0.49 0.59 0.46 0.43 0.46 0.23 0.02 0.00 0.00 0.00 0.03 0.06 0.24 0.35 0.57 1.75 1.77 2.05 1.99 1.16 0.93 0.91 0.96
2.76 2.23 2.19 3.01 2.31 1.63 1.12 1.37 2.03 3.39 3.89 3.34 2.31 1.37 1.60 1.81 1.47 1.16 0.72 0.56 0.51 0.54 0.56 0.48 0.33 0.21 0.08 0.03 0.11 0.09 0.04 0.18 0.42 0.77 0.74 1.68 3.20 2.40 2.41 1.83 1.20 1.05 0.93
5.81 6.52 4.51 4.62 5.15 3.95 2.56 1.26 1.46 2.08 3.36 3.39 3.51 3.36 3.23 2.60 1.68 1.29 0.79 0.59 0.54 0.52 0.45 0.48 0.32 0.29 0.17 0.27 0.25 0.24 0.22 0.22 0.34 0.81 1.09 1.07 2.35 2.96 2.55 1.85 1.23 0.92 0.80
6.86 10.03 10.33 6.90 6.25 5.55 6.20 3.94 1.65 1.56 1.78 2.17 2.29 2.32 2.63 2.99 2.05 1.53 0.97 0.74 0.73 0.72 0.38 0.34 0.29 0.40 0.57 0.53 0.23 0.26 0.29 0.32 0.38 1.04 1.39 0.77 0.80 2.02 4.91 3.34 1.29 0.68 0.51
7.51 6.57 6.83 5.47 4.75 4.34 4.46 5.07 3.57 2.44 2.08 1.85 1.83 1.82 1.73 2.23 2.13 1.50 1.02 0.76 0.83 0.72 0.50 0.40 0.50 0.63 0.58 0.53 0.54 0.46 0.35 0.26 0.15 0.26 0.73 0.61 0.66 0.54 0.93 1.01 0.73 0.52 0.42
3.50 3.96 3.56 2.46 1.71 1.94 2.05 2.50 3.14 3.23 2.64 2.64 2.84 2.07 1.64 1.54 2.06 1.70 1.21 0.92 0.97 0.85 0.69 0.56 0.65 0.66 0.53 0.45 0.31 0.25 0.23 0.23 0.16 0.22 0.44 0.39 0.64 0.74 0.84 0.58 0.45 0.36 0.34
2.08 1.80 1.28 0.81 0.45 0.47 0.61 0.78 1.27 2.09 2.48 2.21 3.53 2.44 2.06 1.20 1.30 1.19 1.36 1.11 0.98 1.11 0.76 0.80 0.65 0.49 0.37 0.25 0.17 0.13 0.10 0.21 0.21 0.27 0.66 0.49 0.66 0.89 0.61 0.44 0.36 0.41 0.46
0.85 0.81 0.75 0.52 0.34 0.38 0.28 0.34 0.51 1.16 1.99 2.26 2.43 2.28 2.29 1.34 1.46 1.17 1.39 1.15 1.02 1.49 0.97 0.93 0.68 0.47 0.31 0.30 0.29 0.16 0.22 0.20 0.22 0.18 0.34 0.33 0.58 0.98 0.71 0.37 0.31 0.28 0.37
0.45 0.47 0.32 0.37 0.45 0.78 0.62 0.38 0.39 0.83 1.58 1.75 1.39 1.24 1.63 1.14 1.14 1.14 0.93 0.94 0.78 1.32 1.00 0.84 0.62 0.52 0.53 0.52 0.41 0.29 0.31 0.24 0.24 0.22 0.24 0.32 0.57 0.78 0.70 0.55 0.39 0.38 0.40
0.30 0.41 0.39 0.18 0.29 0.37 0.48 0.64 0.58 0.69 0.98 1.26 1.06 0.46 1.10 0.93 0.70 1.08 0.84 0.83 0.62 1.22 0.79 0.54 0.57 0.53 0.61 0.68 0.60 0.50 0.28 0.37 0.22 0.27 0.37 0.55 0.60 0.71 1.05 1.01 0.93 0.89 0.61
0.26 0.39 0.47 0.41 0.35 0.35 0.43 0.40 0.56 0.78 1.09 1.00 1.06 0.47 0.41 0.58 0.72 1.15 1.02 0.87 0.61 0.87 0.79 0.68 0.45 0.52 0.50 0.70 0.56 0.49 0.36 0.37 0.18 0.18 0.29 0.45 0.51 0.56 0.85 1.23 1.36 1.14 0.60
0.07 0.22 0.62 1.02 0.50 0.34 0.35 0.45 0.45 0.55 0.93 1.00 1.00 0.74 0.37 0.34 0.48 0.74 0.94 0.73 0.64 0.72 0.67 0.83 0.77 0.60 0.59 0.86 0.60 0.51 0.40 0.45 0.25 0.12 0.20 0.29 0.31 0.40 0.55 0.79 1.04 1.03 0.72
0.04 0.12 0.66 1.27 0.93 0.48 0.31 0.50 0.49 0.63 0.79 0.86 0.90 0.73 0.45 0.32 0.38 0.47 0.71 0.92 0.80 0.82 0.59 0.56 0.77 0.61 0.56 0.77 0.78 0.54 0.52 0.45 0.42 0.13 0.13 0.30 0.32 0.32 0.45 0.52 0.73 0.85 0.84
0.04 0.17 0.50 0.80 1.08 0.98 0.82 0.82 0.67 0.59 0.75 0.73 0.60 0.77 0.68 0.59 0.61 0.52 0.53 0.68 1.04 0.77 0.60 0.64 0.65 0.67 0.48 0.61 0.80 0.69 0.60 0.47 0.54 0.46 0.20 0.21 0.35 0.34 0.32 0.39 0.44 0.48 0.57
0.08 0.32 0.58 0.72 1.21 1.58 0.91 0.50 0.62 0.93 0.81 0.75 0.63 0.75 0.92 0.78 0.97 0.93 0.82 0.61 0.70 0.83 0.69 0.83 0.89 0.81 0.67 0.53 0.69 0.78 0.57 0.66 0.59 0.63 0.40 0.26 0.32 0.38 0.35 0.41 0.39 0.38 0.44
0.18 0.42 0.64 1.00 0.97 0.47 0.28 0.29 0.43 0.62 0.75 0.70 0.59 0.62 1.00 1.15 1.19 1.54 1.49 1.32 0.85 0.53 0.65 0.75 1.13 1.16 1.08 0.93 1.25 1.23 0.90 0.62 0.66 0.60 0.52 0.44 0.51 0.44 0.56 0.49 0.59 0.51 0.54
0.44 0.44 0.33 0.15 0.13 0.05 0.06 0.14 0.30 0.42 0.62 0.57 0.47 0.40 0.69 0.88 1.26 1.36 1.48 1.72 1.87 1.23 0.76 0.73 1.08 1.52 1.63 1.55 1.64 1.42 1.09 0.86 0.61 0.66 0.54 0.42 0.38 0.41 0.56 0.72 0.54 0.55 0.67
0.05 0.02 0.06 0.08 0.14 0.07 0.05 0.20 0.38 0.56 0.76 0.68 0.64 0.34 0.29 0.50 0.84 1.22 1.44 1.38 1.39 1.29 1.16 1.12 1.32 1.76 1.65 1.61 1.42 1.72 1.45 1.10 0.81 0.67 0.58 0.44 0.57 0.70 0.66 0.77 0.89 0.69 0.59
0.03 0.03 0.06 0.13 0.16 0.10 0.20 0.36 0.35 0.38 0.49 0.36 0.29 0.29 0.26 0.45 0.58 0.88 1.20 1.09 1.33 1.57 1.09 0.90 0.69 1.09 1.59 1.74 2.01 1.57 0.93 0.78 0.74 0.76 0.66 0.57 0.50 0.65 0.96 1.52 1.72 1.92 1.91
0.05 0.08 0.08 0.15 0.28 0.21 0.21 0.55 0.69 0.66 0.47 0.40 0.37 0.43 0.42 0.45 0.62 0.69 0.94 1.07 1.11 1.11 1.13 1.00 0.66 0.58 0.86 1.11 1.13 1.32 1.62 1.35 0.97 0.67 0.61 0.50 0.42 0.33 0.41 0.46 0.86 1.31 1.36
0.09 0.12 0.11 0.14 0.24 0.27 0.24 0.39 0.75 1.17 1.51 1.66 1.35 0.93 0.68 0.79 0.84 0.88 0.94 1.05 1.57 1.77 1.56 1.34 1.55 1.33 1.02 1.07 1.27 1.26 0.96 0.89 0.97 1.07 0.87 0.62 0.58 0.41 0.35 0.43 0.51 0.62 0.72

GFSSE_prec_precacc_168.txt.gz
Total_Precipitation_Accumulation
0.61 0.15 0.19 0.29 0.15 0.15 0.08 0.04 0.03 0.06 0.09 0.05 0.04 0.04 0.01 0.01 0.03 0.03 0.02 0.03 0.03 0.08 0.05 0.02 0.03 0.09 0.16 0.12 0.19 0.16 0.17 0.17 0.25 0.74 0.85 0.75 0.60 0.37 0.40 0.70 0.76 1.03 1.25
0.84 0.47 0.58 0.34 0.14 0.16 0.16 0.08 0.04 0.07 0.07 0.04 0.03 0.02 0.01 0.00 0.02 0.02 0.01 0.03 0.04 0.18 0.07 0.02 0.04 0.07 0.12 0.10 0.10 0.08 0.05 0.08 0.15 0.52 0.71 0.80 0.79 0.56 0.64 0.81 1.01 1.37 1.27
1.71 1.02 0.88 0.96 0.32 0.24 0.21 0.13 0.07 0.03 0.02 0.02 0.01 0.01 0.01 0.01 0.01 0.02 0.02 0.03 0.06 0.27 0.25 0.05 0.05 0.14 0.09 0.06 0.07 0.06 0.05 0.03 0.12 0.39 0.77 0.64 0.47 0.94 0.78 0.85 0.80 1.18 1.16
0.53 0.61 0.77 1.20 0.99 0.81 0.64 0.25 0.14 0.09 0.06 0.01 0.03 0.03 0.03 0.02 0.04 0.07 0.03 0.02 0.16 0.31 0.31 0.30 0.27 0.18 0.07 0.03 0.03 0.05 0.03 0.04 0.10 0.24 0.77 1.58 1.06 1.15 0.95 0.72 0.85 1.00 1.18
0.57 0.38 0.78 1.21 1.35 0.83 1.00 0.68 0.44 0.40 0.17 0.08 0.13 0.06 0.06 0.11 0.24 0.30 0.23 0.22 0.40 0.48 0.46 0.48 0.44 0.30 0.08 0.00 0.00 0.01 0.03 0.08 0.08 0.20 1.09 2.59 1.75 1.43 0.97 0.80 0.81 0.80 1.06
1.25 0.96 1.65 2.09 1.51 1.05 0.95 1.17 2.04 1.85 1.26 0.97 0.62 0.41 0.27 0.49 0.62 0.56 0.47 0.43 0.49 0.59 0.47 0.43 0.47 0.23 0.02 0.00 0.00 0.00 0.03 0.06 0.24 0.35 0.57 1.75 1.77 2.05 2.02 1.17 0.93 0.91 0.96
2.79 2.29 2.19 3.01 2.31 1.63 1.12 1.37 2.03 3.39 3.89 3.34 2.31 1.37 1.60 1.81 1.47 1.16 0.72 0.56 0.51 0.54 0.56 0.48 0.33 0.21 0.08 0.03 0.11 0.09 0.04 0.18 0.42 0.77 0.74 1.68 3.20 2.40 2.48 1.89 1.23 1.06 0.93
5.81 6.53 4.51 4.62 5.15 3.95 2.56 1.26 1.46 2.08 3.36 3.39 3.51 3.36 3.23 2.60 1.68 1.29 0.79 0.59 0.54 0.52 0.45 0.48 0.32 0.29 0.17 0.27 0.25 0.24 0.22 0.22 0.34 0.81 1.09 1.07 2.35 2.96 2.57 1.91 1.25 0.93 0.81
6.86 10.03 10.33 6.90 6.25 5.55 6.20 3.94 1.65 1.56 1.78 2.17 2.29 2.32 2.63 2.99 2.05 1.53 0.97 0.74 0.73 0.72 0.38 0.34 0.29 0.40 0.57 0.53 0.23 0.26 0.29 0.32 0.38 1.04 1.39 0.77 0.80 2.02 4.92 3.39 1.33 0.70 0.53
7.52 6.58 6.84 5.47 4.75 4.34 4.46 5.07 3.57 2.44 2.08 1.85 1.83 1.82 1.73 2.23 2.13 1.50 1.02 0.76 0.83 0.72 0.50 0.40 0.50 0.63 0.58 0.54 0.55 0.47 0.36 0.27 0.15 0.26 0.73 0.61 0.66 0.54 0.93 1.04 0.77 0.55 0.46
3.51 3.96 3.56 2.46 1.71 1.94 2.05 2.50 3.14 3.23 2.64 2.64 2.84 2.07 1.64 1.54 2.06 1.70 1.21 0.92 0.97 0.85 0.69 0.56 0.65 0.66 0.53 0.45 0.32 0.29 0.24 0.24 0.16 0.22 0.44 0.39 0.64 0.74 0.84 0.59 0.46 0.39 0.38
2.08 1.80 1.28 0.81 0.45 0.47 0.61 0.78 1.27 2.09 2.48 2.21 3.53 2.44 2.06 1.20 1.30 1.19 1.36 1.11 0.98 1.11 0.76 0.80 0.65 0.49 0.37 0.25 0.17 0.13 0.10 0.22 0.21 0.28 0.66 0.49 0.66 0.89 0.61 0.44 0.37 0.42 0.49
0.85 0.81 0.75 0.52 0.34 0.38 0.28 0.34 0.51 1.16 1.99 2.26 2.43 2.28 2.29 1.34 1.46 1.17 1.39 1.15 1.02 1.49 0.97 0.93 0.68 0.47 0.31 0.30 0.29 0.16 0.22 0.20 0.22 0.19 0.34 0.33 0.58 0.98 0.71 0.37 0.31 0.29 0.38
0.45 0.47 0.32 0.37 0.45 0.78 0.62 0.38 0.39 0.83 1.58 1.75 1.39 1.24 1.63 1.14 1.14 1.14 0.93 0.94 0.78 1.32 1.00 0.84 0.62 0.52 0.53 0.52 0.41 0.29 0.31 0.24 0.24 0.22 0.25 0.32 0.57 0.79 0.71 0.56 0.40 0.39 0.41
0.30 0.41 0.39 0.18 0.29 0.37 0.48 0.64 0.58 0.69 0.98 1.26 1.06 0.46 1.10 0.93 0.70 1.08 0.84 0.83 0.62 1.22 0.79 0.54 0.57 0.53 0.61 0.68 0.60 0.50 0.28 0.37 0.22 0.27 0.37 0.55 0.60 0.71 1.05 1.01 0.94 0.91 0.62
0.26 0.39 0.47 0.41 0.35 0.35 0.43 0.40 0.56 0.78 1.09 1.00 1.06 0.47 0.41 0.58 0.72 1.15 1.02 0.87 0.61 0.87 0.79 0.68 0.45 0.52 0.50 0.70 0.56 0.49 0.36 0.37 0.18 0.18 0.29 0.45 0.51 0.56 0.85 1.23 1.37 1.17 0.64
0.07 0.22 0.62 1.02 0.50 0.34 0.35 0.45 0.45 0.55 0.93 1.00 1.00 0.74 0.37 0.34 0.48 0.74 0.94 0.73 0.64 0.72 0.67 0.83 0.77 0.60 0.59 0.86 0.60 0.51 0.40 0.45 0.25 0.12 0.20 0.29 0.31 0.40 0.55 0.79 1.04 1.04 0.75
0.04 0.12 0.66 1.27 0.93 0.48 0.31 0.50 0.49 0.63 0.79 0.86 0.90 0.73 0.45 0.32 0.38 0.47 0.71 0.92 0.80 0.82 0.59 0.56 0.77 0.61 0.56 0.77 0.78 0.54 0.52 0.45 0.42 0.13 0.13 0.30 0.32 0.32 0.45 0.52 0.73 0.85 0.85
0.04 0.17 0.50 0.80 1.08 0.98 0.82 0.82 0.67 0.59 0.75 0.73 0.60 0.77 0.68 0.59 0.61 0.52 0.53 0.68 1.04 0.77 0.60 0.64 0.65 0.67 0.48 0.61 0.80 0.69 0.60 0.47 0.54 0.46 0.20 0.21 0.35 0.34 0.32 0.39 0.44 0.48 0.58
0.08 0.32 0.58 0.72 1.21 1.58 0.91 0.50 0.62 0.93 0.81 0.75 0.63 0.75 0.92 0.78 0.97 0.93 0.82 0.61 0.70 0.83 0.69 0.83 0.89 0.81 0.67 0.53 0.69 0.78 0.57 0.66 0.59 0.63 0.40 0.26 0.32 0.38 0.35 0.41 0.39 0.38 0.44
0.18 0.42 0.64 1.00 0.97 0.47 0.28 0.29 0.43 0.62 0.75 0.70 0.59 0.62 1.00 1.15 1.19 1.54 1.49 1.32 0.85 0.53 0.65 0.75 1.13 1.16 1.08 0.93 1.25 1.23 0.90 0.62 0.66 0.60 0.52 0.44 0.51 0.44 0.56 0.49 0.59 0.51 0.54
0.44 0.44 0.33 0.15 0.13 0.05 0.06 0.14 0.30 0.42 0.62 0.57 0.47 0.40 0.69 0.88 1.26 1.36 1.48 1.72 1.87 1.23 0.76 0.73 1.08 1.52 1.63 1.55 1.64 1.42 1.09 0.86 0.61 0.66 0.54 0.42 0.38 0.41 0.56 0.72 0.55 0.56 0.68
0.05 0.02 0.06 0.08 0.14 0.07 0.05 0.20 0.38 0.56 0.76 0.68 0.64 0.34 0.29 0.50 0.84 1.22 1.44 1.38 1.39 1.29 1.16 1.12 1.32 1.76 1.65 1.61 1.42 1.72 1.46 1.10 0.81 0.67 0.58 0.44 0.57 0.70 0.66 0.77 0.89 0.69 0.60
0.03 0.03 0.06 0.13 0.16 0.10 0.20 0.36 0.35 0.38 0.49 0.36 0.29 0.29 0.26 0.45 0.58 0.88 1.20 1.09 1.33 1.57 1.09 0.90 0.69 1.09 1.60 1.75 2.01 1.57 0.94 0.80 0.75 0.76 0.66 0.57 0.50 0.65 0.96 1.52 1.72 1.92 1.91
0.05 0.08 0.08 0.15 0.28 0.21 0.21 0.55 0.69 0.66 0.47 0.40 0.37 0.43 0.42 0.45 0.62 0.69 0.94 1.07 1.11 1.11 1.13 1.00 0.66 0.58 0.86 1.11 1.13 1.33 1.63 1.35 0.98 0.69 0.61 0.50 0.42 0.33 0.41 0.46 0.86 1.32 1.36
0.09 0.12 0.11 0.14 0.24 0.27 0.24 0.39 0.75 1.17 1.51 1.66 1.35 0.93 0.68 0.79 0.84 0.88 0.94 1.05 1.57 1.77 1.56 1.34 1.55 1.33 1.02 1.07 1.28 1.27 0.97 0.90 0.97 1.08 0.88 0.62 0.58 0.41 0.35 0.44 0.52 0.62 0.72

GFSSE_prec_precacc_174.txt.gz
Total_Precipitation_Accumulation
0.62 0.16 0.21 0.30 0.17 0.17 0.10 0.05 0.03 0.06 0.09 0.05 0.04 0.04 0.01 0.01 0.03 0.03 0.02 0.03 0.03 0.08 0.05 0.02 0.03 0.09 0.16 0.12 0.19 0.16 0.17 0.17 0.25 0.74 0.85 0.75 0.60 0.37 0.40 0.70 0.76 1.05 1.29
0.84 0.47 0.58 0.35 0.14 0.17 0.18 0.09 0.05 0.07 0.08 0.04 0.03 0.02 0.01 0.00 0.02 0.02 0.01 0.03 0.04 0.18 0.07 0.02 0.04 0.07 0.12 0.10 0.10 0.08 0.05 0.08 0.15 0.52 0.71 0.80 0.79 0.56 0.64 0.81 1.01 1.40 1.29
1.71 1.02 0.88 0.96 0.33 0.26 0.23 0.15 0.08 0.04 0.03 0.03 0.03 0.02 0.02 0.02 0.01 0.03 0.03 0.04 0.07 0.29 0.27 0.06 0.05 0.14 0.09 0.06 0.07 0.06 0.05 0.03 0.12 0.39 0.77 0.64 0.47 0.95 0.80 0.86 0.81 1.20 1.19
0.53 0.61 0.77 1.21 1.01 0.83 0.66 0.25 0.15 0.10 0.06 0.01 0.03 0.04 0.05 0.03 0.05 0.09 0.05 0.04 0.19 0.35 0.36 0.35 0.33 0.23 0.10 0.03 0.03 0.05 0.03 0.04 0.10 0.24 0.77 1.58 1.06 1.16 1.00 0.75 0.86 1.04 1.25
0.57 0.38 0.78 1.21 1.35 0.84 1.00 0.68 0.44 0.40 0.17 0.08 0.13 0.06 0.07 0.11 0.24 0.30 0.23 0.22 0.40 0.49 0.47 0.52 0.49 0.35 0.10 0.01 0.00 0.01 0.03 0.08 0.08 0.20 1.09 2.59 1.75 1.43 0.99 0.83 0.82 0.81 1.08
1.26 1.00 1.66 2.09 1.52 1.05 0.96 1.17 2.04 1.85 1.26 0.97 0.62 0.41 0.27 0.49 0.62 0.56 0.47 0.43 0.49 0.59 0.47 0.43 0.47 0.23 0.02 0.00 0.00 0.00 0.03 0.06 0.24 0.35 0.57 1.75 1.77 2.05 2.04 1.24 1.00 0.95 0.98
2.82 2.36 2.27 3.02 2.31 1.63 1.12 1.37 2.03 3.39 3.89 3.34 2.31 1.37 1.60 1.81 1.47 1.16 0.72 0.56 0.51 0.54 0.56 0.48 0.33 0.21 0.08 0.03 0.11 0.09 0.04 0.18 0.42 0.77 0.74 1.68 3.20 2.40 2.49 1.91 1.26 1.10 0.96
5.83 6.57 4.61 4.72 5.17 3.96 2.56 1.29 1.49 2.08 3.36 3.39 3.51 3.36 3.23 2.60 1.68 1.29 0.79 0.59 0.54 0.52 0.45 0.48 0.32 0.29 0.17 0.27 0.25 0.24 0.22 0.22 0.34 0.82 1.09 1.07 2.35 2.96 2.57 1.91 1.27 0.95 0.85
6.87 10.10 10.42 7.05 6.27 5.59 6.26 3.97 1.66 1.56 1.78 2.17 2.29 2.32 2.63 2.99 2.05 1.53 0.97 0.74 0.73 0.72 0.38 0.34 0.29 0.40 0.57 0.53 0.23 0.26 0.29 0.32 0.39 1.05 1.40 0.77 0.80 2.02 4.92 3.39 1.34 0.71 0.55
7.52 6.63 6.88 5.58 4.84 4.38 4.48 5.08 3.57 2.44 2.08 1.85 1.83 1.82 1.73 2.23 2.13 1.50 1.02 0.76 0.83 0.72 0.50 0.40 0.50 0.63 0.58 0.54 0.55 0.47 0.36 0.28 0.15 0.28 0.77 0.65 0.66 0.54 0.93 1.04 0.77 0.56 0.47
3.51 3.99 3.60 2.52 1.76 1.97 2.05 2.50 3.14 3.23 2.64 2.64 2.84 2.07 1.64 1.54 2.06 1.70 1.21 0.92 0.97 0.85 0.69 0.56 0.65 0.66 0.53 0.45 0.32 0.29 0.24 0.24 0.17 0.24 0.45 0.49 0.72 0.74 0.84 0.59 0.46 0.39 0.39
2.09 1.81 1.31 0.84 0.46 0.47 0.61 0.78 1.27 2.09 2.48 2.21 3.53 2.44 2.06 1.20 1.30 1.19 1.36 1.11 0.98 1.11 0.76 0.80 0.65 0.49 0.37 0.25 0.17 0.13 0.10 0.22 0.21 0.28 0.67 0.56 0.73 0.91 0.64 0.45 0.37 0.42 0.49
0.85 0.82 0.76 0.53 0.34 0.38 0.28 0.34 0.51 1.16 1.99 2.26 2.43 2.28 2.29 1.34 1.46 1.17 1.39 1.15 1.02 1.49 0.97 0.93 0.68 0.47 0.31 0.30 0.29 0.16 0.22 0.20 0.22 0.19 0.34 0.34 0.59 1.01 0.75 0.40 0.34 0.30 0.39
0.45 0.47 0.33 0.37 0.45 0.78 0.62 0.38 0.39 0.83 1.58 1.75 1.39 1.24 1.63 1.14 1.14 1.14 0.93 0.94 0.78 1.32 1.00 0.84 0.62 0.52 0.53 0.52 0.41 0.29 0.31 0.24 0.24 0.22 0.25 0.32 0.57 0.79 0.71 0.57 0.45 0.45 0.43
0.30 0.41 0.39 0.18 0.29 0.37 0.48 0.64 0.58 0.69 0.98 1.26 1.06 0.46 1.10 0.93 0.70 1.08 0.84 0.83 0.62 1.22 0.79 0.54 0.57 0.53 0.61 0.68 0.60 0.50 0.28 0.37 0.22 0.27 0.37 0.55 0.60 0.71 1.05 1.01 0.95 0.94 0.67
0.26 0.39 0.47 0.41 0.35 0.35 0.43 0.40 0.56 0.78 1.09 1.00 1.06 0.47 0.41 0.58 0.72 1.15 1.02 0.87 0.61 0.87 0.79 0.68 0.45 0.52 0.50 0.70 0.56 0.49 0.36 0.37 0.18 0.18 0.29 0.45 0.51 0.56 0.85 1.23 1.37 1.18 0.65
0.07 0.22 0.62 1.02 0.50 0.34 0.35 0.45 0.45 0.55 0.93 1.00 1.00 0.74 0.37 0.34 0.48 0.74 0.94 0.73 0.64 0.72 0.67 0.83 0.77 0.60 0.59 0.86 0.60 0.51 0.40 0.45 0.25 0.12 0.20 0.29 0.31 0.40 0.55 0.79 1.04 1.04 0.76
0.04 0.12 0.66 1.27 0.93 0.48 0.31 0.50 0.49 0.63 0.79 0.86 0.90 0.73 0.45 0.32 0.38 0.47 0.71 0.92 0.80 0.82 0.59 0.56 0.77 0.61 0.56 0.77 0.78 0.54 0.52 0.45 0.42 0.13 0.13 0.30 0.32 0.32 0.45 0.52 0.73 0.85 0.85
0.04 0.17 0.50 0.80 1.08 0.98 0.82 0.82 0.67 0.59 0.75 0.73 0.60 0.77 0.68 0.59 0.61 0.52 0.53 0.68 1.04 0.77 0.60 0.64 0.65 0.67 0.48 0.61 0.80 0.69 0.60 0.47 0.54 0.46 0.20 0.21 0.35 0.34 0.32 0.39 0.44 0.48 0.58
0.08 0.32 0.58 0.72 1.21 1.58 0.91 0.50 0.62 0.93 0.81 0.75 0.63 0.75 0.92 0.78 0.97 0.93 0.82 0.61 0.70 0.83 0.69 0.83 0.89 0.81 0.67 0.53 0.69 0.78 0.57 0.66 0.59 0.63 0.40 0.26 0.32 0.38 0.35 0.41 0.39 0.38 0.44
0.18 0.42 0.64 1.00 0.97 0.47 0.28 0.29 0.43 0.62 0.75 0.70 0.59 0.62 1.00 1.15 1.19 1.54 1.49 1.32 0.85 0.53 0.65 0.75 1.13 1.16 1.08 0.93 1.25 1.23 0.90 0.62 0.66 0.60 0.52 0.44 0.51 0.44 0.56 0.49 0.59 0.51 0.55
0.44 0.44 0.33 0.15 0.13 0.05 0.06 0.14 0.30 0.42 0.62 0.57 0.47 0.40 0.69 0.88 1.26 1.36 1.48 1.72 1.87 1.23 0.76 0.73 1.08 1.52 1.63 1.55 1.64 1.42 1.09 0.86 0.61 0.66 0.54 0.42 0.38 0.41 0.56 0.72 0.55 0.56 0.69
0.05 0.02 0.06 0.08 0.14 0.07 0.05 0.20 0.38 0.56 0.76 0.68 0.64 0.34 0.29 0.50 0.84 1.22 1.44 1.38 1.39 1.29 1.16 1.12 1.32 1.76 1.65 1.61 1.42 1.73 1.47 1.10 0.81 0.67 0.58 0.44 0.57 0.70 0.66 0.77 0.90 0.70 0.60
0.03 0.03 0.06 0.13 0.16 0.10 0.20 0.36 0.35 0.38 0.49 0.36 0.29 0.29 0.26 0.45 0.58 0.88 1.20 1.09 1.33 1.57 1.09 0.90 0.69 1.09 1.60 1.75 2.01 1.57 0.94 0.81 0.77 0.77 0.66 0.57 0.50 0.65 0.96 1.52 1.73 1.92 1.91
0.05 0.08 0.08 0.15 0.28 0.21 0.21 0.55 0.69 0.66 0.47 0.40 0.37 0.43 0.42 0.45 0.62 0.69 0.94 1.07 1.11 1.11 1.13 1.00 0.66 0.58 0.86 1.12 1.14 1.33 1.63 1.35 0.99 0.71 0.62 0.50 0.42 0.33 0.42 0.47 0.89 1.33 1.36
0.09 0.12 0.11 0.14 0.24 0.27 0.24 0.39 0.75 1.17 1.51 1.66 1.35 0.93 0.68 0.79 0.84 0.88 0.94 1.05 1.57 1.77 1.56 1.34 1.55 1.33 1.02 1.07 1.28 1.27 0.98 0.91 0.98 1.09 0.89 0.62 0.58 0.41 0.40 0.47 0.54 0.64 0.73

GFSSE_prec_precacc_180.txt.gz
Total_Precipitation_Accumulation
0.62 0.16 0.21 0.31 0.18 0.17 0.10 0.05 0.03 0.06 0.09 0.05 0.04 0.04 0.01 0.01 0.03 0.03 0.02 0.03 0.03 0.08 0.05 0.02 0.03 0.09 0.16 0.12 0.19 0.16 0.17 0.17 0.25 0.74 0.85 0.75 0.60 0.37 0.40 0.70 0.76 1.09 1.36
0.84 0.47 0.59 0.35 0.15 0.17 0.18 0.10 0.06 0.07 0.08 0.04 0.03 0.02 0.01 0.00 0.02 0.02 0.01 0.03 0.04 0.18 0.07 0.02 0.04 0.07 0.12 0.10 0.10 0.08 0.05 0.08 0.15 0.52 0.71 0.80 0.80 0.59 0.65 0.81 1.02 1.42 1.32
1.72 1.03 0.89 0.97 0.34 0.26 0.23 0.15 0.09 0.04 0.03 0.03 0.03 0.02 0.02 0.02 0.02 0.03 0.03 0.04 0.07 0.30 0.28 0.09 0.08 0.16 0.10 0.06 0.07 0.06 0.05 0.03 0.12 0.39 0.77 0.64 0.52 0.99 0.81 0.86 0.81 1.20 1.20
0.54 0.62 0.78 1.22 1.01 0.84 0.66 0.25 0.15 0.10 0.07 0.02 0.04 0.04 0.05 0.04 0.06 0.09 0.05 0.04 0.19 0.35 0.37 0.36 0.34 0.24 0.10 0.04 0.04 0.05 0.03 0.04 0.10 0.24 0.77 1.58 1.08 1.21 1.03 0.76 0.86 1.04 1.25
0.57 0.38 0.79 1.22 1.35 0.84 1.00 0.68 0.44 0.40 0.17 0.08 0.13 0.06 0.07 0.12 0.24 0.30 0.23 0.22 0.40 0.50 0.47 0.52 0.49 0.35 0.11 0.01 0.00 0.01 0.03 0.08 0.08 0.20 1.09 2.59 1.75 1.43 1.01 0.84 0.83 0.81 1.08
1.26 1.00 1.66 2.09 1.52 1.05 0.96 1.17 2.04 1.85 1.26 0.97 0.62 0.41 0.27 0.49 0.62 0.56 0.47 0.43 0.49 0.59 0.47 0.43 0.47 0.23 0.02 0.00 0.00 0.00 0.03 0.06 0.24 0.35 0.57 1.75 1.77 2.05 2.04 1.24 1.00 0.95 0.99
2.82 2.36 2.27 3.02 2.31 1.63 1.12 1.37 2.03 3.39 3.90 3.35 2.31 1.37 1.60 1.81 1.47 1.16 0.72 0.56 0.51 0.54 0.56 0.48 0.33 0.21 0.08 0.03 0.11 0.09 0.04 0.18 0.42 0.77 0.74 1.68 3.20 2.41 2.49 1.91 1.26 1.11 0.96
5.83 6.57 4.63 4.77 5.19 3.96 2.57 1.29 1.54 2.16 3.42 3.40 3.51 3.36 3.23 2.60 1.68 1.29 0.79 0.59 0.54 0.52 0.45 0.48 0.32 0.29 0.17 0.27 0.25 0.24 0.22 0.22 0.34 0.82 1.09 1.07 2.36 3.00 2.62 1.92 1.27 0.95 0.85
6.88 10.12 10.51 7.20 6.33 5.59 6.27 4.07 1.76 1.60 1.80 2.17 2.29 2.32 2.63 2.99 2.05 1.53 0.97 0.74 0.73 0.72 0.38 0.34 0.29 0.40 0.57 0.53 0.23 0.26 0.29 0.32 0.39 1.05 1.40 0.77 0.84 2.07 4.95 3.39 1.34 0.71 0.55
7.52 6.64 6.93 5.66 4.88 4.53 4.68 5.25 3.66 2.47 2.10 1.85 1.83 1.82 1.73 2.23 2.13 1.50 1.02 0.76 0.83 0.72 0.50 0.40 0.50 0.63 0.58 0.54 0.55 0.47 0.36 0.28 0.15 0.28 0.82 0.72 0.79 0.61 1.05 1.17 0.81 0.56 0.47
3.51 3.99 3.65 2.60 1.81 2.07 2.17 2.62 3.20 3.24 2.64 2.64 2.84 2.07 1.64 1.54 2.06 1.70 1.21 0.92 0.97 0.85 0.69 0.56 0.65 0.66 0.53 0.45 0.32 0.29 0.24 0.24 0.17 0.24 0.46 0.51 0.85 0.80 0.92 0.67 0.54 0.47 0.41
2.09 1.81 1.33 0.88 0.50 0.48 0.62 0.78 1.28 2.10 2.48 2.21 3.53 2.44 2.06 1.20 1.30 1.19 1.36 1.11 0.98 1.11 0.76 0.80 0.65 0.49 0.37 0.25 0.17 0.13 0.10 0.22 0.21 0.28 0.67 0.56 0.73 0.91 0.65 0.51 0.51 0.59 0.57
0.85 0.82 0.77 0.56 0.36 0.39 0.29 0.34 0.51 1.16 1.99 2.26 2.43 2.28 2.29 1.34 1.46 1.17 1.39 1.15 1.02 1.49 0.97 0.93 0.68 0.47 0.31 0.30 0.29 0.16 0.22 0.20 0.22 0.19 0.34 0.34 0.59 1.01 0.75 0.40 0.37 0.49 0.59
0.45 0.47 0.33 0.38 0.45 0.78 0.62 0.38 0.39 0.83 1.58 1.75 1.39 1.24 1.63 1.14 1.14 1.14 0.93 0.94 0.78 1.32 1.00 0.84 0.62 0.52 0.53 0.52 0.41 0.29 0.31 0.24 0.24 0.22 0.25 0.32 0.57 0.79 0.71 0.57 0.45 0.47 0.53
0.30 0.41 0.39 0.18 0.29 0.37 0.48 0.64 0.58 0.69 0.98 1.26 1.06 0.46 1.10 0.93 0.70 1.08 0.84 0.83 0.62 1.22 0.79 0.54 0.57 0.53 0.61 0.68 0.60 0.50 0.28 0.37 0.22 0.27 0.37 0.55 0.60 0.71 1.05 1.01 0.95 0.94 0.67
0.26 0.39 0.47 0.41 0.35 0.35 0.43 0.40 0.56 0.78 1.09 1.00 1.06 0.47 0.41 0.58 0.72 1.15 1.02 0.87 0.61 0.87 0.79 0.68 0.45 0.52 0.50 0.70 0.56 0.49 0.36 0.37 0.18 0.18 0.29 0.45 0.51 0.56 0.85 1.23 1.37 1.18 0.65
0.07 0.22 0.62 1.02 0.50 0.34 0.35 0.45 0.45 0.55 0.93 1.00 1.00 0.74 0.37 0.34 0.48 0.74 0.94 0.73 0.64 0.72 0.67 0.83 0.77 0.60 0.59 0.86 0.60 0.51 0.40 0.45 0.25 0.12 0.20 0.29 0.31 0.40 0.55 0.79 1.04 1.04 0.76
0.04 0.12 0.66 1.27 0.93 0.48 0.31 0.50 0.49 0.63 0.79 0.86 0.90 0.73 0.45 0.32 0.38 0.47 0.71 0.92 0.80 0.82 0.59 0.56 0.77 0.61 0.56 0.77 0.78 0.54 0.52 0.45 0.42 0.13 0.13 0.30 0.32 0.32 0.45 0.52 0.73 0.86 0.85
0.04 0.17 0.50 0.80 1.08 0.98 0.82 0.82 0.67 0.59 0.75 0.73 0.60 0.77 0.68 0.59 0.61 0.52 0.53 0.68 1.04 0.77 0.60 0.64 0.65 0.67 0.48 0.61 0.80 0.69 0.60 0.47 0.54 0.46 0.20 0.21 0.35 0.34 0.32 0.39 0.44 0.49 0.59
0.08 0.32 0.58 0.72 1.21 1.58 0.91 0.50 0.62 0.93 0.81 0.75 0.63 0.75 0.92 0.78 0.97 0.93 0.82 0.61 0.70 0.83 0.69 0.83 0.89 0.81 0.67 0.53 0.69 0.78 0.57 0.66 0.59 0.63 0.40 0.26 0.32 0.38 0.35 0.41 0.39 0.39 0.49
0.18 0.42 0.64 1.00 0.97 0.47 0.28 0.29 0.43 0.62 0.75 0.70 0.59 0.62 1.00 1.15 1.19 1.54 1.49 1.32 0.85 0.53 0.65 0.75 1.13 1.16 1.08 0.93 1.25 1.23 0.90 0.62 0.66 0.60 0.52 0.44 0.51 0.44 0.56 0.49 0.59 0.51 0.58
0.44 0.44 0.33 0.15 0.13 0.05 0.06 0.14 0.30 0.42 0.62 0.57 0.47 0.40 0.69 0.88 1.26 1.36 1.48 1.72 1.87 1.23 0.76 0.73 1.08 1.52 1.63 1.55 1.64 1.42 1.09 0.86 0.61 0.66 0.54 0.42 0.38 0.41 0.56 0.73 0.56 0.58 0.70
0.05 0.02 0.06 0.08 0.14 0.07 0.05 0.20 0.38 0.56 0.76 0.68 0.64 0.34 0.29 0.50 0.84 1.22 1.44 1.38 1.39 1.29 1.16 1.12 1.32 1.76 1.65 1.61 1.42 1.73 1.47 1.10 0.81 0.67 0.58 0.44 0.57 0.70 0.66 0.78 0.91 0.71 0.61
0.03 0.03 0.06 0.13 0.16 0.10 0.20 0.36 0.35 0.38 0.49 0.36 0.29 0.29 0.26 0.45 0.58 0.88 1.20 1.09 1.33 1.57 1.09 0.90 0.69 1.09 1.60 1.75 2.01 1.57 0.94 0.81 0.77 0.77 0.66 0.57 0.50 0.65 0.97 1.53 1.73 1.93 1.92
0.05 0.08 0.08 0.15 0.28 0.21 0.21 0.55 0.69 0.66 0.47 0.40 0.37 0.43 0.42 0.45 0.62 0.69 0.94 1.07 1.11 1.11 1.13 1.00 0.66 0.58 0.86 1.12 1.14 1.33 1.63 1.35 0.99 0.71 0.62 0.50 0.42 0.33 0.43 0.49 0.90 1.34 1.38
0.09 0.12 0.11 0.14 0.24 0.27 0.24 0.39 0.75 1.17 1.51 1.66 1.35 0.93 0.68 0.79 0.84 0.88 0.94 1.05 1.57 1.77 1.56 1.34 1.55 1.33 1.02 1.07 1.28 1.27 0.98 0.91 0.99 1.10 0.90 0.62 0.58 0.41 0.42 0.48 0.54 0.65 0.75

GFSSE_prec_precacc_183.txt.gz
Total_Precipitation_Accumulation
0.62 0.16 0.21 0.31 0.18 0.17 0.10 0.05 0.03 0.06 0.09 0.05 0.04 0.04 0.01 0.01 0.03 0.03 0.02 0.03 0.03 0.08 0.05 0.02 0.03 0.09 0.16 0.12 0.19 0.16 0.17 0.17 0.25 0.74 0.85 0.75 0.60 0.37 0.41 0.70 0.77 1.10 1.37
0.84 0.47 0.59 0.35 0.15 0.17 0.18 0.10 0.06 0.07 0.08 0.04 0.03 0.02 0.01 0.00 0.02 0.02 0.01 0.03 0.04 0.18 0.07 0.02 0.04 0.07 0.12 0.10 0.10 0.08 0.05 0.08 0.15 0.52 0.71 0.80 0.80 0.63 0.71 0.81 1.02 1.42 1.32
1.72 1.03 0.89 0.97 0.34 0.26 0.23 0.15 0.09 0.04 0.03 0.03 0.03 0.02 0.02 0.02 0.02 0.03 0.03 0.04 0.07 0.30 0.28 0.09 0.08 0.16 0.10 0.06 0.07 0.06 0.05 0.03 0.12 0.39 0.77 0.64 0.52 1.04 0.89 0.89 0.82 1.20 1.20
0.54 0.62 0.78 1.22 1.01 0.84 0.66 0.25 0.15 0.10 0.07 0.02 0.04 0.05 0.05 0.04 0.06 0.09 0.05 0.04 0.19 0.35 0.37 0.36 0.34 0.24 0.11 0.05 0.04 0.05 0.03 0.04 0.10 0.24 0.77 1.58 1.08 1.26 1.07 0.78 0.87 1.04 1.25
0.57 0.38 0.79 1.22 1.35 0.84 1.00 0.68 0.45 0.40 0.17 0.08 0.13 0.06 0.08 0.12 0.25 0.30 0.23 0.22 0.40 0.50 0.48 0.52 0.49 0.35 0.11 0.01 0.00 0.01 0.03 0.08 0.08 0.20 1.09 2.59 1.75 1.49 1.05 0.86 0.83 0.81 1.09
1.26 1.00 1.67 2.10 1.52 1.05 0.96 1.17 2.05 1.85 1.26 0.97 0.63 0.41 0.28 0.49 0.62 0.56 0.47 0.43 0.49 0.59 0.47 0.43 0.47 0.23 0.02 0.00 0.00 0.00 0.03 0.06 0.24 0.35 0.57 1.75 1.77 2.08 2.08 1.26 1.00 0.95 0.99
2.82 2.36 2.27 3.03 2.32 1.64 1.13 1.38 2.03 3.39 3.90 3.35 2.31 1.37 1.60 1.81 1.47 1.16 0.72 0.56 0.51 0.54 0.56 0.48 0.33 0.21 0.08 0.03 0.11 0.09 0.04 0.18 0.42 0.77 0.74 1.68 3.20 2.45 2.56 1.96 1.28 1.11 0.96
5.83 6.57 4.63 4.78 5.19 3.96 2.57 1.29 1.54 2.16 3.42 3.40 3.51 3.36 3.23 2.60 1.68 1.29 0.79 0.59 0.54 0.52 0.45 0.48 0.32 0.29 0.17 0.27 0.25 0.24 0.22 0.22 0.34 0.82 1.09 1.08 2.38 3.03 2.67 1.97 1.31 0.96 0.85
6.88 10.12 10.51 7.20 6.33 5.59 6.27 4.07 1.76 1.61 1.80 2.18 2.30 2.32 2.63 2.99 2.05 1.53 0.97 0.74 0.73 0.72 0.38 0.34 0.29 0.40 0.57 0.53 0.23 0.26 0.29 0.32 0.39 1.05 1.40 0.77 0.85 2.11 5.04 3.48 1.41 0.78 0.57
7.53 6.64 6.93 5.66 4.88 4.53 4.68 5.25 3.66 2.47 2.10 1.85 1.83 1.82 1.73 2.23 2.13 1.50 1.02 0.76 0.83 0.72 0.50 0.40 0.50 0.63 0.58 0.54 0.55 0.47 0.36 0.28 0.15 0.28 0.82 0.72 0.79 0.65 1.10 1.27 0.94 0.66 0.56
3.51 3.99 3.65 2.60 1.81 2.07 2.17 2.62 3.21 3.25 2.64 2.64 2.84 2.07 1.64 1.54 2.06 1.70 1.21 0.92 0.97 0.85 0.69 0.56 0.65 0.66 0.53 0.45 0.32 0.29 0.24 0.24 0.17 0.24 0.46 0.51 0.85 0.80 0.92 0.67 0.55 0.51 0.47
2.09 1.81 1.33 0.88 0.50 0.49 0.63 0.78 1.28 2.10 2.48 2.21 3.53 2.44 2.06 1.20 1.30 1.19 1.36 1.11 0.98 1.11 0.76 0.80 0.65 0.49 0.37 0.25 0.17 0.13 0.10 0.22 0.21 0.28 0.67 0.56 0.73 0.91 0.65 0.51 0.51 0.59 0.57
0.85 0.82 0.77 0.56 0.36 0.39 0.29 0.34 0.51 1.16 1.99 2.26 2.43 2.28 2.29 1.34 1.46 1.17 1.39 1.15 1.02 1.49 0.97 0.93 0.68 0.47 0.31 0.30 0.29 0.16 0.22 0.20 0.22 0.19 0.34 0.34 0.59 1.01 0.75 0.40 0.37 0.49 0.59
0.45 0.47 0.33 0.38 0.45 0.78 0.62 0.38 0.39 0.83 1.58 1.75 1.39 1.24 1.63 1.14 1.14 1.14 0.93 0.94 0.78 1.32 1.00 0.84 0.62 0.52 0.53 0.52 0.41 0.29 0.31 0.24 0.24 0.22 0.25 0.32 0.57 0.79 0.71 0.57 0.45 0.47 0.53
0.30 0.41 0.39 0.18 0.29 0.37 0.48 0.64 0.58 0.69 0.98 1.26 1.06 0.46 1.10 0.93 0.70 1.08 0.84 0.83 0.62 1.22 0.79 0.54 0.57 0.53 0.61 0.68 0.60 0.50 0.28 0.37 0.22 0.27 0.37 0.55 0.60 0.71 1.05 1.01 0.95 0.94 0.67
0.26 0.39 0.47 0.41 0.35 0.35 0.43 0.40 0.56 0.78 1.09 1.00 1.06 0.47 0.41 0.58 0.72 1.15 1.02 0.87 0.61 0.87 0.79 0.68 0.45 0.52 0.50 0.70 0.56 0.49 0.36 0.37 0.18 0.18 0.29 0.45 0.51 0.56 0.85 1.23 1.37 1.19 0.67
0.07 0.22 0.62 1.02 0.50 0.34 0.35 0.45 0.45 0.55 0.93 1.00 1.00 0.74 0.37 0.34 0.48 0.74 0.94 0.73 0.64 0.72 0.67 0.83 0.77 0.60 0.59 0.86 0.60 0.51 0.40 0.45 0.25 0.12 0.20 0.29 0.31 0.40 0.55 0.80 1.05 1.06 0.78
0.04 0.12 0.66 1.27 0.93 0.48 0.31 0.50 0.49 0.63 0.79 0.86 0.90 0.73 0.45 0.32 0.38 0.47 0.71 0.92 0.80 0.82 0.59 0.56 0.77 0.61 0.56 0.77 0.78 0.54 0.52 0.45 0.42 0.13 0.13 0.30 0.32 0.32 0.45 0.52 0.74 0.87 0.87
0.04 0.17 0.50 0.80 1.08 0.98 0.82 0.82 0.67 0.59 0.75 0.73 0.60 0.77 0.68 0.59 0.61 0.52 0.53 0.68 1.04 0.77 0.60 0.64 0.65 0.67 0.48 0.61 0.80 0.69 0.60 0.47 0.54 0.46 0.20 0.21 0.35 0.34 0.32 0.39 0.44 0.49 0.60
0.08 0.32 0.58 0.72 1.21 1.58 0.91 0.50 0.62 0.93 0.81 0.75 0.63 0.75 0.92 0.78 0.97 0.93 0.82 0.61 0.70 0.83 0.69 0.83 0.89 0.81 0.67 0.53 0.69 0.78 0.57 0.66 0.59 0.63 0.40 0.26 0.32 0.38 0.35 0.41 0.39 0.39 0.50
0.18 0.42 0.64 1.00 0.97 0.47 0.28 0.29 0.43 0.62 0.75 0.70 0.59 0.62 1.00 1.15 1.19 1.54 1.49 1.32 0.85 0.53 0.65 0.75 1.13 1.16 1.08 0.93 1.25 1.23 0.90 0.62 0.66 0.60 0.52 0.44 0.51 0.44 0.56 0.49 0.59 0.51 0.58
0.44 0.44 0.33 0.15 0.13 0.05 0.06 0.14 0.30 0.42 0.62 0.57 0.47 0.40 0.69 0.88 1.26 1.36 1.48 1.72 1.87 1.23 0.76 0.73 1.08 1.52 1.63 1.55 1.64 1.42 1.09 0.86 0.61 0.66 0.54 0.42 0.38 0.41 0.56 0.73 0.56 0.58 0.70
0.05 0.02 0.06 0.08 0.14 0.07 0.05 0.20 0.38 0.56 0.76 0.68 0.64 0.34 0.29 0.50 0.84 1.22 1.44 1.38 1.39 1.29 1.16 1.12 1.32 1.76 1.65 1.61 1.42 1.73 1.47 1.10 0.81 0.67 0.58 0.44 0.57 0.70 0.66 0.78 0.91 0.71 0.61
0.03 0.03 0.06 0.13 0.16 0.10 0.20 0.36 0.35 0.38 0.49 0.36 0.29 0.29 0.26 0.45 0.58 0.88 1.20 1.09 1.33 1.57 1.09 0.90 0.69 1.09 1.60 1.75 2.01 1.57 0.94 0.81 0.77 0.77 0.66 0.57 0.50 0.65 0.97 1.53 1.73 1.93 1.92
0.05 0.08 0.08 0.15 0.28 0.21 0.21 0.55 0.69 0.66 0.47 0.40 0.37 0.43 0.42 0.45 0.62 0.69 0.94 1.07 1.11 1.11 1.13 1.00 0.66 0.58 0.86 1.12 1.14 1.33 1.63 1.35 0.99 0.71 0.62 0.50 0.42 0.33 0.43 0.49 0.90 1.34 1.38
0.09 0.12 0.11 0.14 0.24 0.27 0.24 0.39 0.75 1.17 1.51 1.66 1.35 0.93 0.68 0.79 0.84 0.88 0.94 1.05 1.57 1.77 1.56 1.34 1.55 1.33 1.02 1.07 1.28 1.27 0.98 0.91 0.99 1.10 0.90 0.62 0.58 0.41 0.42 0.48 0.54 0.65 0.75